Weather History for Kahului, HI

Change the Weather History Date:

Tuesday, November 6, 2012

  Actual Average Record
Temperature  
Mean Temperature 78 °F 77 °F  
Max Temperature 86 °F 85 °F 91 °F (1984)
Min Temperature 70 °F 69 °F 61 °F (1973)
Degree Days  
Heating Degree Days 0 0  
Month to date heating degree days 0 0  
Since 1 July heating degree days 0 0  
Cooling Degree Days 13 12  
Month to date cooling degree days 60 72  
Year to date cooling degree days 3402 3448  
Growing Degree Days 28 (Base 50)    
Moisture  
Dew Point 70 °F    
Average Humidity 80    
Maximum Humidity 100    
Minimum Humidity 59    
Precipitation  
Precipitation T in 0.06 in 0.26 in (1969)
Month to date precipitation T 0.33  
Year to date precipitation 4.71 12.61  
Snow  
Snow 0.00 in - - ()
Month to date snowfall 0.0  
Since 1 July snowfall 0.0  
Since 1 September snowfall 0.0  
Snow Depth 0.00 in    
Sea Level Pressure  
Sea Level Pressure 29.95 in    
Wind  
Wind Speed 16 mph (NE)    
Max Wind Speed 28 mph    
Max Gust Speed 35 mph    
Visibility 10 miles    
Events      
T = Trace of Precipitation, MM = Missing Value Source: NWS Daily Summary

Daily Weather History Graph

Daily Weather History Graph

Search for Another Location

Airport:

Trip Planner

Search our weather history database for the weather conditions in past years. The results will help you decide how hot, cold, wet, or windy it might be!

Date:

Astronomy

Nov. 06, 2012 Rise Set
Actual Time 6:31 AM HST 5:47 PM HST
Civil Twilight 6:08 AM HST 6:10 PM HST
Nautical Twilight 5:41 AM HST 6:36 PM HST
Astronomical Twilight 5:15 AM HST 7:03 PM HST
Moon No Moon Rise 12:36 PM HST (11/6)
Length of Visible Light 12h 02m
Length of Day
11h 16m
Waning Gibbous, 51% of the Moon is Illuminated
Nov 6
Waning Gibbous
Nov 6
Last Quarter
Nov 13
New
Nov 20
First Quarter
Nov 28
Full

Hourly Weather History & Observations

Time (HST) Temp. Heat Index Dew Point Humidity Pressure Visibility Wind Dir Wind Speed Gust Speed Precip Events Conditions
12:54 AM 73.9 °F - 71.1 °F 91% 29.96 in 10.0 mi ENE 16.1 mph 25.3 mph 0.00 in   Overcast
1:54 AM 73.9 °F - 70.0 °F 87% 29.96 in 10.0 mi NNE 5.8 mph - N/A   Overcast
2:54 AM 73.9 °F - 71.1 °F 91% 29.95 in 10.0 mi NE 11.5 mph - N/A   Mostly Cloudy
3:54 AM 73.9 °F - 70.0 °F 87% 29.94 in 10.0 mi East 13.8 mph 20.7 mph 0.00 in   Overcast
4:54 AM 73.9 °F - 71.1 °F 91% 29.95 in 10.0 mi ENE 5.8 mph - N/A   Mostly Cloudy
5:54 AM 73.0 °F - 72.0 °F 96% 29.96 in 10.0 mi ENE 10.4 mph - 0.00 in   Mostly Cloudy
6:54 AM 73.9 °F - 72.0 °F 93% 29.97 in 10.0 mi NE 11.5 mph - N/A   Partly Cloudy
7:54 AM 77.0 °F - 71.1 °F 82% 29.98 in 10.0 mi ENE 12.7 mph 18.4 mph N/A   Clear
8:54 AM 79.0 °F - 73.0 °F 82% 29.98 in 10.0 mi ENE 15.0 mph 21.9 mph N/A   Scattered Clouds
9:54 AM 81.0 °F 84.1 °F 69.1 °F 67% 29.98 in 10.0 mi ENE 18.4 mph 26.5 mph N/A   Smoke
10:54 AM 82.9 °F 86.5 °F 69.1 °F 63% 29.96 in 10.0 mi ENE 19.6 mph 28.8 mph N/A   Partly Cloudy
11:54 AM 84.0 °F 87.0 °F 68.0 °F 58% 29.94 in 10.0 mi ENE 19.6 mph 27.6 mph N/A   Clear
12:54 PM 84.0 °F 88.4 °F 70.0 °F 63% 29.91 in 10.0 mi NE 24.2 mph 34.5 mph N/A   Clear
1:54 PM 84.0 °F 89.0 °F 71.1 °F 65% 29.89 in 10.0 mi NE 20.7 mph 31.1 mph N/A   Partly Cloudy
2:54 PM 82.9 °F 87.5 °F 71.1 °F 67% 29.89 in 10.0 mi NE 25.3 mph 31.1 mph N/A   Scattered Clouds
3:54 PM 82.0 °F 86.7 °F 72.0 °F 71% 29.90 in 10.0 mi NE 20.7 mph 29.9 mph N/A   Scattered Clouds
4:54 PM 80.1 °F 83.6 °F 71.1 °F 74% 29.91 in 10.0 mi NE 24.2 mph 33.4 mph N/A   Clear
5:54 PM 77.0 °F - 72.0 °F 84% 29.93 in 10.0 mi NE 19.6 mph 26.5 mph N/A   Clear
6:54 PM 75.9 °F - 71.1 °F 85% 29.96 in 10.0 mi NE 12.7 mph 20.7 mph N/A   Clear
7:54 PM 75.0 °F - 69.1 °F 82% 29.97 in 10.0 mi NE 15.0 mph - N/A   Clear
8:54 PM 75.0 °F - 68.0 °F 79% 29.97 in 10.0 mi NNE 13.8 mph - N/A   Clear
9:54 PM 73.0 °F - 66.9 °F 81% 29.97 in 10.0 mi NE 15.0 mph - N/A   Clear
10:54 PM 73.9 °F - 69.1 °F 85% 29.98 in 10.0 mi ENE 12.7 mph 21.9 mph N/A   Clear
11:54 PM 72.0 °F - 66.0 °F 81% 29.99 in 10.0 mi ENE 8.1 mph - N/A   Partly Cloudy